Time,TemperatureF,DewpointF,PressureIn,WindDirection,WindDirectionDegrees,WindSpeedMPH,WindSpeedGustMPH,Humidity,HourlyPrecipIn,Conditions,Clouds,dailyrainin,SoftwareType,DateUTC
2013-01-20 00:09:00,57.8,51.3,29.12,SW,234,15.0,15.0,79,0.00,,,0.00,Wunderground v.1.15,2013-01-19 23:09:00,
2013-01-20 00:15:00,57.9,51.8,29.12,South,172,13.0,13.0,80,0.00,,,0.00,Wunderground v.1.15,2013-01-19 23:15:00,
2013-01-20 00:20:00,57.7,51.9,29.12,South,176,13.0,19.0,81,0.00,,,0.00,Wunderground v.1.15,2013-01-19 23:20:00,
2013-01-20 00:40:00,57.7,51.6,29.12,SW,227,16.0,19.0,80,0.00,,,0.00,Wunderground v.1.15,2013-01-19 23:40:00,
2013-01-20 00:55:00,57.5,51.4,29.11,SW,236,13.0,13.0,80,0.00,,,0.00,Wunderground v.1.15,2013-01-19 23:55:00,
2013-01-20 01:00:00,57.5,51.7,29.11,South,170,12.0,12.0,81,0.00,,,0.00,Wunderground v.1.15,2013-01-20 00:00:00,
2013-01-20 01:15:00,57.4,51.6,29.11,SW,224,13.0,14.0,81,0.00,,,0.00,Wunderground v.1.15,2013-01-20 00:15:00,
2013-01-20 01:25:00,57.3,51.5,29.11,South,184,12.0,15.0,81,0.00,,,0.00,Wunderground v.1.15,2013-01-20 00:25:00,
2013-01-20 01:30:00,57.3,51.2,29.11,South,187,12.0,12.0,80,0.00,,,0.00,Wunderground v.1.15,2013-01-20 00:30:00,
2013-01-20 01:40:00,57.4,51.6,29.10,SSW,204,11.0,20.0,81,0.00,,,0.00,Wunderground v.1.15,2013-01-20 00:40:00,
2013-01-20 01:45:00,57.4,51.6,29.10,SW,229,11.0,11.0,81,0.00,,,0.00,Wunderground v.1.15,2013-01-20 00:45:00,
2013-01-20 01:55:00,57.5,51.7,29.10,South,174,10.0,10.0,81,0.00,,,0.00,Wunderground v.1.15,2013-01-20 00:55:00,
2013-01-20 02:10:00,57.2,51.1,29.10,SW,221,10.0,13.0,80,0.00,,,0.00,Wunderground v.1.15,2013-01-20 01:10:00,
2013-01-20 02:15:00,57.1,50.6,29.10,South,185,10.0,10.0,79,0.00,,,0.00,Wunderground v.1.15,2013-01-20 01:15:00,
2013-01-20 02:25:00,57.2,50.4,29.10,SW,227,10.0,14.0,78,0.00,,,0.00,Wunderground v.1.15,2013-01-20 01:25:00,
2013-01-20 02:30:00,57.0,50.2,29.11,WSW,243,11.0,14.0,78,0.00,,,0.00,Wunderground v.1.15,2013-01-20 01:30:00,
2013-01-20 02:40:00,56.7,49.2,29.11,SW,228,11.0,11.0,76,0.00,,,0.00,Wunderground v.1.15,2013-01-20 01:40:00,
2013-01-20 02:45:00,56.6,49.1,29.11,SW,227,9.0,9.0,76,0.00,,,0.00,Wunderground v.1.15,2013-01-20 01:45:00,
2013-01-20 02:55:00,56.5,49.4,29.11,SW,217,7.0,7.0,77,0.00,,,0.00,Wunderground v.1.15,2013-01-20 01:55:00,
2013-01-20 03:00:00,56.4,48.9,29.12,WSW,238,7.0,7.0,76,0.00,,,0.00,Wunderground v.1.15,2013-01-20 02:00:00,
2013-01-20 03:10:00,56.5,49.0,29.11,SW,219,6.0,6.0,76,0.00,,,0.00,Wunderground v.1.15,2013-01-20 02:10:00,
2013-01-20 03:15:00,56.4,49.3,29.11,SW,220,4.0,6.0,77,0.00,,,0.00,Wunderground v.1.15,2013-01-20 02:15:00,
2013-01-20 03:25:00,56.0,48.9,29.11,SW,220,2.0,3.0,77,0.00,,,0.00,Wunderground v.1.15,2013-01-20 02:25:00,
2013-01-20 03:30:00,55.9,48.8,29.12,SW,220,2.0,3.0,77,0.00,,,0.00,Wunderground v.1.15,2013-01-20 02:30:00,
2013-01-20 03:40:00,55.8,49.0,29.12,SW,220,3.0,3.0,78,0.00,,,0.00,Wunderground v.1.15,2013-01-20 02:40:00,
2013-01-20 03:45:00,55.6,48.8,29.11,SW,220,2.0,3.0,78,0.00,,,0.00,Wunderground v.1.15,2013-01-20 02:45:00,
2013-01-20 03:50:00,55.4,48.3,29.11,SW,220,1.0,1.0,77,0.00,,,0.00,Wunderground v.1.15,2013-01-20 02:50:00,
2013-01-20 04:04:00,54.2,46.8,29.11,SW,220,3.0,3.0,76,0.00,,,0.00,Wunderground v.1.15,2013-01-20 03:04:00,
2013-01-20 04:10:00,53.9,46.9,29.11,SW,220,3.0,3.0,77,0.00,,,0.00,Wunderground v.1.15,2013-01-20 03:10:00,
2013-01-20 04:19:00,53.8,47.1,29.11,SW,220,1.0,2.0,78,0.00,,,0.00,Wunderground v.1.15,2013-01-20 03:19:00,
2013-01-20 04:30:00,53.1,46.8,29.11,SW,227,1.0,4.0,79,0.00,,,0.00,Wunderground v.1.15,2013-01-20 03:30:00,
2013-01-20 04:39:00,52.6,46.6,29.11,SW,227,0.0,1.0,80,0.00,,,0.00,Wunderground v.1.15,2013-01-20 03:39:00,
2013-01-20 04:44:00,52.4,46.4,29.11,SW,227,0.0,0.0,80,0.00,,,0.00,Wunderground v.1.15,2013-01-20 03:44:00,
2013-01-20 04:50:00,52.2,46.2,29.11,SW,227,0.0,0.0,80,0.00,,,0.00,Wunderground v.1.15,2013-01-20 03:50:00,
2013-01-20 05:00:00,51.9,46.3,29.12,SW,227,0.0,1.0,81,0.00,,,0.00,Wunderground v.1.15,2013-01-20 04:00:00,
2013-01-20 05:09:00,52.5,47.2,29.12,SW,227,1.0,1.0,82,0.00,,,0.00,Wunderground v.1.15,2013-01-20 04:09:00,
2013-01-20 05:14:00,52.8,47.5,29.12,SW,227,1.0,1.0,82,0.00,,,0.00,Wunderground v.1.15,2013-01-20 04:14:00,
2013-01-20 05:21:00,52.9,47.2,29.13,SW,227,0.0,0.0,81,0.00,,,0.00,Wunderground v.1.15,2013-01-20 04:21:00,
2013-01-20 05:31:00,52.2,46.5,29.13,SW,227,1.0,1.0,81,0.00,,,0.00,Wunderground v.1.15,2013-01-20 04:31:00,
2013-01-20 05:40:00,51.9,46.3,29.13,SW,227,0.0,1.0,81,0.00,,,0.00,Wunderground v.1.15,2013-01-20 04:40:00,
2013-01-20 05:50:00,52.1,46.8,29.14,SW,227,0.0,0.0,82,0.00,,,0.00,Wunderground v.1.15,2013-01-20 04:50:00,
2013-01-20 06:05:00,52.1,46.4,29.16,WNW,292,6.0,6.0,81,0.00,,,0.01,Wunderground v.1.15,2013-01-20 05:05:00,
2013-01-20 06:10:00,51.7,46.7,29.16,West,278,6.0,6.0,83,0.00,,,0.01,Wunderground v.1.15,2013-01-20 05:10:00,
2013-01-20 06:15:00,51.6,47.2,29.17,WNW,296,3.0,5.0,85,0.00,,,0.01,Wunderground v.1.15,2013-01-20 05:15:00,
2013-01-20 06:20:00,51.6,47.2,29.17,WNW,296,3.0,5.0,85,0.00,,,0.01,Wunderground v.1.15,2013-01-20 05:20:00,
2013-01-20 06:35:00,51.6,47.5,29.18,West,273,2.0,4.0,86,0.00,,,0.01,Wunderground v.1.15,2013-01-20 05:35:00,
2013-01-20 06:40:00,51.9,47.8,29.18,West,271,5.0,5.0,86,0.00,,,0.02,Wunderground v.1.15,2013-01-20 05:40:00,
2013-01-20 06:45:00,52.3,47.9,29.19,West,272,7.0,9.0,85,0.00,,,0.02,Wunderground v.1.15,2013-01-20 05:45:00,
2013-01-20 06:55:00,52.3,47.6,29.19,NW,314,9.0,20.0,84,0.00,,,0.02,Wunderground v.1.15,2013-01-20 05:55:00,
2013-01-20 07:00:00,52.3,47.6,29.20,WNW,283,11.0,11.0,84,0.00,,,0.02,Wunderground v.1.15,2013-01-20 06:00:00,
2013-01-20 07:10:00,52.1,47.1,29.20,WNW,283,11.0,13.0,83,0.00,,,0.02,Wunderground v.1.15,2013-01-20 06:10:00,
2013-01-20 07:20:00,52.1,46.8,29.22,West,261,11.0,13.0,82,0.00,,,0.02,Wunderground v.1.15,2013-01-20 06:20:00,
2013-01-20 07:25:00,52.0,46.7,29.22,WNW,300,10.0,10.0,82,0.00,,,0.02,Wunderground v.1.15,2013-01-20 06:25:00,
2013-01-20 07:30:00,51.9,46.6,29.23,SW,228,9.0,10.0,82,0.00,,,0.02,Wunderground v.1.15,2013-01-20 06:30:00,
2013-01-20 07:40:00,52.2,46.5,29.23,WNW,284,12.0,12.0,81,0.00,,,0.02,Wunderground v.1.15,2013-01-20 06:40:00,
2013-01-20 07:45:00,52.2,46.5,29.24,WNW,286,12.0,12.0,81,0.00,,,0.02,Wunderground v.1.15,2013-01-20 06:45:00,
2013-01-20 07:50:00,52.1,46.4,29.24,WNW,301,11.0,18.0,81,0.00,,,0.02,Wunderground v.1.15,2013-01-20 06:50:00,
2013-01-20 08:00:00,51.8,46.2,29.25,WNW,292,13.0,14.0,81,0.00,,,0.02,Wunderground v.1.15,2013-01-20 07:00:00,
2013-01-20 08:10:00,51.4,45.8,29.26,West,273,11.0,11.0,81,0.00,,,0.02,Wunderground v.1.15,2013-01-20 07:10:00,
2013-01-20 08:15:00,51.4,45.8,29.26,West,265,10.0,11.0,81,0.00,,,0.02,Wunderground v.1.15,2013-01-20 07:15:00,
2013-01-20 08:24:00,51.5,45.2,29.27,NW,307,10.0,12.0,79,0.00,,,0.02,Wunderground v.1.15,2013-01-20 07:24:00,
2013-01-20 08:34:00,51.6,45.0,29.27,WNW,283,11.0,11.0,78,0.00,,,0.02,Wunderground v.1.15,2013-01-20 07:34:00,
2013-01-20 08:40:00,51.6,44.6,29.27,West,264,10.0,14.0,77,0.00,,,0.02,Wunderground v.1.15,2013-01-20 07:40:00,
2013-01-20 08:49:00,51.9,44.6,29.28,WNW,288,11.0,11.0,76,0.00,,,0.02,Wunderground v.1.15,2013-01-20 07:49:00,
2013-01-20 08:55:00,51.6,44.6,29.28,West,278,9.0,11.0,77,0.00,,,0.02,Wunderground v.1.15,2013-01-20 07:55:00,
2013-01-20 09:00:00,51.3,44.7,29.29,WNW,294,8.0,8.0,78,0.00,,,0.02,Wunderground v.1.15,2013-01-20 08:00:00,
2013-01-20 09:10:00,51.4,44.8,29.29,WNW,298,8.0,8.0,78,0.00,,,0.02,Wunderground v.1.15,2013-01-20 08:10:00,
2013-01-20 09:20:00,51.6,44.3,29.30,West,281,8.0,10.0,76,0.00,,,0.02,Wunderground v.1.15,2013-01-20 08:20:00,
2013-01-20 09:30:00,51.8,44.1,29.30,WNW,297,11.0,11.0,75,0.00,,,0.02,Wunderground v.1.15,2013-01-20 08:30:00,
2013-01-20 09:40:00,51.9,44.2,29.31,West,275,8.0,10.0,75,0.00,,,0.02,Wunderground v.1.15,2013-01-20 08:40:00,
2013-01-20 09:45:00,52.0,44.0,29.31,WNW,294,8.0,10.0,74,0.00,,,0.02,Wunderground v.1.15,2013-01-20 08:45:00,
2013-01-20 09:50:00,52.1,44.1,29.32,NW,304,10.0,12.0,74,0.00,,,0.02,Wunderground v.1.15,2013-01-20 08:50:00,
2013-01-20 10:04:00,52.3,43.9,29.33,NW,309,8.0,10.0,73,0.00,,,0.02,Wunderground v.1.15,2013-01-20 09:04:00,
2013-01-20 10:10:00,52.4,43.6,29.33,WNW,303,9.0,10.0,72,0.00,,,0.02,Wunderground v.1.15,2013-01-20 09:10:00,
2013-01-20 10:15:00,52.5,43.4,29.34,West,265,10.0,10.0,71,0.00,,,0.02,Wunderground v.1.15,2013-01-20 09:15:00,
2013-01-20 10:25:00,52.9,43.7,29.36,West,278,10.0,20.0,71,0.00,,,0.02,Wunderground v.1.15,2013-01-20 09:25:00,
2013-01-20 10:30:00,52.8,43.3,29.35,NW,313,11.0,20.0,70,0.00,,,0.02,Wunderground v.1.15,2013-01-20 09:30:00,
2013-01-20 10:40:00,53.1,43.6,29.36,West,275,9.0,12.0,70,0.00,,,0.02,Wunderground v.1.15,2013-01-20 09:40:00,
2013-01-20 10:50:00,53.3,43.0,29.36,NW,310,10.0,11.0,68,0.00,,,0.02,Wunderground v.1.15,2013-01-20 09:50:00,
2013-01-20 11:04:00,53.2,43.3,29.37,West,262,9.0,9.0,69,0.00,,,0.02,Wunderground v.1.15,2013-01-20 10:04:00,
2013-01-20 11:10:00,53.3,43.4,29.38,WNW,287,8.0,9.0,69,0.00,,,0.02,Wunderground v.1.15,2013-01-20 10:10:00,
2013-01-20 11:15:00,53.1,43.2,29.38,WNW,302,9.0,10.0,69,0.00,,,0.02,Wunderground v.1.15,2013-01-20 10:15:00,
2013-01-20 11:25:00,52.9,43.0,29.38,WSW,257,11.0,11.0,69,0.00,,,0.02,Wunderground v.1.15,2013-01-20 10:25:00,
2013-01-20 11:30:00,52.8,43.3,29.38,West,281,9.0,11.0,70,0.00,,,0.02,Wunderground v.1.15,2013-01-20 10:30:00,
2013-01-20 11:40:00,53.0,43.1,29.39,WNW,299,11.0,12.0,69,0.00,,,0.02,Wunderground v.1.15,2013-01-20 10:40:00,
2013-01-20 11:45:00,53.1,43.6,29.39,NNW,342,10.0,10.0,70,0.00,,,0.02,Wunderground v.1.15,2013-01-20 10:45:00,
2013-01-20 11:50:00,53.1,43.6,29.40,West,271,10.0,12.0,70,0.00,,,0.02,Wunderground v.1.15,2013-01-20 10:50:00,
2013-01-20 12:00:00,52.8,43.3,29.40,WNW,286,13.0,16.0,70,0.00,,,0.02,Wunderground v.1.15,2013-01-20 11:00:00,
2013-01-20 12:09:00,52.7,43.2,29.40,WNW,302,13.0,16.0,70,0.00,,,0.02,Wunderground v.1.15,2013-01-20 11:09:00,
2013-01-20 12:20:00,52.5,43.0,29.40,NW,322,12.0,16.0,70,0.00,,,0.02,Wunderground v.1.15,2013-01-20 11:20:00,
2013-01-20 12:34:00,52.8,42.9,29.41,West,279,11.0,14.0,69,0.00,,,0.02,Wunderground v.1.15,2013-01-20 11:34:00,
2013-01-20 12:39:00,52.8,43.3,29.41,West,265,11.0,14.0,70,0.00,,,0.02,Wunderground v.1.15,2013-01-20 11:39:00,
2013-01-20 12:44:00,52.9,43.0,29.41,WSW,256,9.0,9.0,69,0.00,,,0.02,Wunderground v.1.15,2013-01-20 11:44:00,
2013-01-20 12:54:00,53.0,43.1,29.41,WNW,294,10.0,14.0,69,0.00,,,0.02,Wunderground v.1.15,2013-01-20 11:54:00,
2013-01-20 13:00:00,53.0,43.1,29.41,WNW,291,12.0,12.0,69,0.00,,,0.02,Wunderground v.1.15,2013-01-20 12:00:00,
2013-01-20 13:09:00,53.1,43.2,29.41,WSW,251,8.0,8.0,69,0.00,,,0.02,Wunderground v.1.15,2013-01-20 12:09:00,
2013-01-20 13:20:00,53.2,43.3,29.41,WNW,284,6.0,11.0,69,0.00,,,0.02,Wunderground v.1.15,2013-01-20 12:20:00,
2013-01-20 13:35:00,53.1,42.8,29.42,WSW,256,8.0,8.0,68,0.00,,,0.02,Wunderground v.1.15,2013-01-20 12:35:00,
2013-01-20 13:40:00,53.2,42.9,29.42,West,271,7.0,8.0,68,0.00,,,0.02,Wunderground v.1.15,2013-01-20 12:40:00,
2013-01-20 13:50:00,53.3,42.2,29.43,West,281,8.0,8.0,66,0.00,,,0.02,Wunderground v.1.15,2013-01-20 12:50:00,
2013-01-20 14:00:00,53.6,42.5,29.43,West,274,7.0,7.0,66,0.00,,,0.02,Wunderground v.1.15,2013-01-20 13:00:00,
2013-01-20 14:15:00,53.6,42.9,29.44,WNW,292,9.0,9.0,67,0.00,,,0.02,Wunderground v.1.15,2013-01-20 13:15:00,
2013-01-20 14:25:00,53.7,43.0,29.44,West,267,8.0,8.0,67,0.00,,,0.02,Wunderground v.1.15,2013-01-20 13:25:00,
2013-01-20 14:30:00,53.6,42.5,29.44,West,273,9.0,9.0,66,0.00,,,0.02,Wunderground v.1.15,2013-01-20 13:30:00,
2013-01-20 14:40:00,53.7,42.6,29.45,WNW,282,9.0,9.0,66,0.00,,,0.02,Wunderground v.1.15,2013-01-20 13:40:00,
2013-01-20 14:50:00,54.2,42.3,29.45,WNW,300,10.0,13.0,64,0.00,,,0.02,Wunderground v.1.15,2013-01-20 13:50:00,
2013-01-20 14:55:00,54.5,43.0,29.45,NW,319,10.0,10.0,65,0.00,,,0.02,Wunderground v.1.15,2013-01-20 13:55:00,
2013-01-20 15:00:00,54.8,42.9,29.46,West,273,9.0,14.0,64,0.00,,,0.02,Wunderground v.1.15,2013-01-20 14:00:00,
2013-01-20 15:10:00,54.1,42.2,29.46,WNW,284,12.0,12.0,64,0.00,,,0.02,Wunderground v.1.15,2013-01-20 14:10:00,
2013-01-20 15:15:00,54.0,42.1,29.46,WNW,295,11.0,15.0,64,0.00,,,0.02,Wunderground v.1.15,2013-01-20 14:15:00,
2013-01-20 15:20:00,54.1,42.2,29.47,WNW,290,11.0,15.0,64,0.00,,,0.02,Wunderground v.1.15,2013-01-20 14:20:00,
2013-01-20 15:30:00,54.2,41.9,29.48,WNW,292,12.0,12.0,63,0.00,,,0.02,Wunderground v.1.15,2013-01-20 14:30:00,
2013-01-20 15:40:00,54.2,42.3,29.48,WSW,253,11.0,11.0,64,0.00,,,0.02,Wunderground v.1.15,2013-01-20 14:40:00,
2013-01-20 15:45:00,54.5,42.6,29.48,WNW,294,12.0,12.0,64,0.00,,,0.02,Wunderground v.1.15,2013-01-20 14:45:00,
2013-01-20 15:50:00,54.5,42.2,29.49,West,275,12.0,14.0,63,0.00,,,0.02,Wunderground v.1.15,2013-01-20 14:50:00,
2013-01-20 16:00:00,54.8,42.0,29.49,West,275,11.0,11.0,62,0.00,,,0.02,Wunderground v.1.15,2013-01-20 15:00:00,
2013-01-20 16:10:00,55.0,41.8,29.50,West,273,10.0,10.0,61,0.00,,,0.02,Wunderground v.1.15,2013-01-20 15:10:00,
2013-01-20 16:15:00,55.1,41.9,29.50,West,281,10.0,14.0,61,0.00,,,0.02,Wunderground v.1.15,2013-01-20 15:15:00,
2013-01-20 16:25:00,55.2,42.0,29.50,NW,304,10.0,11.0,61,0.00,,,0.02,Wunderground v.1.15,2013-01-20 15:25:00,
2013-01-20 16:30:00,55.2,41.1,29.50,WNW,292,9.0,21.0,59,0.00,,,0.02,Wunderground v.1.15,2013-01-20 15:30:00,
2013-01-20 16:40:00,55.2,41.1,29.51,West,278,11.0,16.0,59,0.00,,,0.02,Wunderground v.1.15,2013-01-20 15:40:00,
2013-01-20 16:45:00,55.2,40.7,29.51,West,273,11.0,16.0,58,0.00,,,0.02,Wunderground v.1.15,2013-01-20 15:45:00,
2013-01-20 16:55:00,54.9,40.8,29.52,WNW,298,13.0,13.0,59,0.00,,,0.02,Wunderground v.1.15,2013-01-20 15:55:00,
2013-01-20 17:00:00,54.8,40.7,29.52,NW,309,11.0,13.0,59,0.00,,,0.02,Wunderground v.1.15,2013-01-20 16:00:00,
2013-01-20 17:10:00,54.8,41.2,29.52,West,276,9.0,13.0,60,0.00,,,0.02,Wunderground v.1.15,2013-01-20 16:10:00,
2013-01-20 17:15:00,54.8,41.2,29.53,West,271,10.0,10.0,60,0.00,,,0.02,Wunderground v.1.15,2013-01-20 16:15:00,
2013-01-20 17:24:00,55.1,41.0,29.53,WNW,283,9.0,12.0,59,0.00,,,0.02,Wunderground v.1.15,2013-01-20 16:24:00,
2013-01-20 17:30:00,55.1,41.0,29.53,WNW,302,8.0,13.0,59,0.00,,,0.02,Wunderground v.1.15,2013-01-20 16:30:00,
2013-01-20 17:40:00,54.7,39.8,29.54,West,279,11.0,16.0,57,0.00,,,0.02,Wunderground v.1.15,2013-01-20 16:40:00,
2013-01-20 17:45:00,54.6,40.1,29.55,West,278,9.0,11.0,58,0.00,,,0.02,Wunderground v.1.15,2013-01-20 16:45:00,
2013-01-20 17:54:00,54.6,39.7,29.55,WNW,288,9.0,14.0,57,0.00,,,0.02,Wunderground v.1.15,2013-01-20 16:54:00,
2013-01-20 18:00:00,54.6,39.2,29.55,WNW,288,10.0,10.0,56,0.00,,,0.02,Wunderground v.1.15,2013-01-20 17:00:00,
2013-01-20 18:09:00,54.5,39.1,29.56,West,275,8.0,8.0,56,0.00,,,0.02,Wunderground v.1.15,2013-01-20 17:09:00,
2013-01-20 18:15:00,54.5,39.6,29.56,WSW,253,6.0,8.0,57,0.00,,,0.02,Wunderground v.1.15,2013-01-20 17:15:00,
2013-01-20 18:20:00,54.6,40.6,29.56,SW,236,6.0,11.0,59,0.00,,,0.02,Wunderground v.1.15,2013-01-20 17:20:00,
2013-01-20 18:35:00,54.5,40.5,29.57,West,264,6.0,6.0,59,0.00,,,0.02,Wunderground v.1.15,2013-01-20 17:35:00,
2013-01-20 18:40:00,54.5,40.9,29.57,SW,228,6.0,7.0,60,0.00,,,0.02,Wunderground v.1.15,2013-01-20 17:40:00,
2013-01-20 18:50:00,54.4,41.2,29.58,West,279,4.0,6.0,61,0.00,,,0.02,Wunderground v.1.15,2013-01-20 17:50:00,
2013-01-20 19:00:00,54.3,39.4,29.58,West,273,8.0,12.0,57,0.00,,,0.02,Wunderground v.1.15,2013-01-20 18:00:00,
2013-01-20 19:10:00,54.3,38.9,29.58,WSW,255,10.0,12.0,56,0.00,,,0.02,Wunderground v.1.15,2013-01-20 18:10:00,
2013-01-20 19:15:00,54.4,38.6,29.58,WNW,284,9.0,12.0,55,0.00,,,0.02,Wunderground v.1.15,2013-01-20 18:15:00,
2013-01-20 19:20:00,54.5,38.7,29.59,NW,311,9.0,9.0,55,0.00,,,0.02,Wunderground v.1.15,2013-01-20 18:20:00,
2013-01-20 19:30:00,54.6,38.3,29.59,WNW,296,9.0,9.0,54,0.00,,,0.02,Wunderground v.1.15,2013-01-20 18:30:00,
2013-01-20 19:40:00,54.6,38.3,29.59,WSW,238,7.0,7.0,54,0.00,,,0.02,Wunderground v.1.15,2013-01-20 18:40:00,
2013-01-20 19:45:00,54.6,38.3,29.59,West,266,6.0,7.0,54,0.00,,,0.02,Wunderground v.1.15,2013-01-20 18:45:00,
2013-01-20 19:55:00,54.4,39.0,29.59,West,281,4.0,5.0,56,0.00,,,0.02,Wunderground v.1.15,2013-01-20 18:55:00,
2013-01-20 20:05:00,54.5,40.5,29.59,WSW,254,5.0,5.0,59,0.00,,,0.02,Wunderground v.1.15,2013-01-20 19:05:00,
2013-01-20 20:10:00,54.5,40.5,29.59,West,262,6.0,6.0,59,0.00,,,0.02,Wunderground v.1.15,2013-01-20 19:10:00,
2013-01-20 20:15:00,54.4,41.6,29.59,WSW,252,4.0,4.0,62,0.00,,,0.02,Wunderground v.1.15,2013-01-20 19:15:00,
2013-01-20 20:20:00,54.3,42.0,29.59,WSW,240,4.0,7.0,63,0.00,,,0.02,Wunderground v.1.15,2013-01-20 19:20:00,
2013-01-20 20:35:00,54.4,41.6,29.60,SW,233,4.0,4.0,62,0.00,,,0.02,Wunderground v.1.15,2013-01-20 19:35:00,
2013-01-20 20:40:00,54.5,42.6,29.60,SSW,207,5.0,5.0,64,0.00,,,0.02,Wunderground v.1.15,2013-01-20 19:40:00,
2013-01-20 20:45:00,54.4,42.5,29.60,SSW,194,5.0,5.0,64,0.00,,,0.02,Wunderground v.1.15,2013-01-20 19:45:00,
2013-01-20 20:55:00,54.4,42.1,29.60,SW,215,4.0,4.0,63,0.00,,,0.02,Wunderground v.1.15,2013-01-20 19:55:00,
2013-01-20 21:00:00,54.5,41.7,29.60,SW,219,4.0,6.0,62,0.00,,,0.02,Wunderground v.1.15,2013-01-20 20:00:00,
2013-01-20 21:10:00,54.6,41.8,29.60,SW,227,5.0,5.0,62,0.00,,,0.02,Wunderground v.1.15,2013-01-20 20:10:00,
2013-01-20 21:20:00,54.5,42.2,29.60,SW,232,5.0,5.0,63,0.00,,,0.02,Wunderground v.1.15,2013-01-20 20:20:00,
2013-01-20 21:30:00,54.3,42.4,29.60,SW,225,4.0,4.0,64,0.00,,,0.02,Wunderground v.1.15,2013-01-20 20:30:00,
2013-01-20 21:40:00,54.3,42.8,29.60,WSW,242,5.0,5.0,65,0.00,,,0.02,Wunderground v.1.15,2013-01-20 20:40:00,
2013-01-20 21:45:00,54.3,43.2,29.60,SW,234,4.0,8.0,66,0.00,,,0.02,Wunderground v.1.15,2013-01-20 20:45:00,
2013-01-20 21:55:00,54.3,42.8,29.61,WSW,247,6.0,6.0,65,0.00,,,0.02,Wunderground v.1.15,2013-01-20 20:55:00,
2013-01-20 22:00:00,54.2,43.1,29.61,WSW,239,6.0,6.0,66,0.00,,,0.02,Wunderground v.1.15,2013-01-20 21:00:00,
2013-01-20 22:15:00,54.3,43.2,29.61,WSW,237,6.0,6.0,66,0.00,,,0.02,Wunderground v.1.15,2013-01-20 21:15:00,
2013-01-20 22:25:00,54.2,42.7,29.61,WSW,250,7.0,8.0,65,0.00,,,0.02,Wunderground v.1.15,2013-01-20 21:25:00,
2013-01-20 22:30:00,54.3,42.8,29.61,WSW,237,7.0,8.0,65,0.00,,,0.02,Wunderground v.1.15,2013-01-20 21:30:00,
2013-01-20 22:40:00,54.3,43.6,29.61,SW,228,7.0,7.0,67,0.00,,,0.02,Wunderground v.1.15,2013-01-20 21:40:00,
2013-01-20 22:45:00,54.5,43.8,29.60,SW,229,8.0,8.0,67,0.00,,,0.02,Wunderground v.1.15,2013-01-20 21:45:00,
2013-01-20 22:55:00,54.7,44.3,29.60,WSW,238,7.0,7.0,68,0.00,,,0.02,Wunderground v.1.15,2013-01-20 21:55:00,
2013-01-20 23:00:00,54.7,44.7,29.60,SW,232,6.0,6.0,69,0.00,,,0.02,Wunderground v.1.15,2013-01-20 22:00:00,
2013-01-20 23:15:00,54.4,45.2,29.60,WSW,238,4.0,4.0,71,0.00,,,0.02,Wunderground v.1.15,2013-01-20 22:15:00,
2013-01-20 23:20:00,54.3,44.7,29.60,WSW,240,5.0,5.0,70,0.00,,,0.02,Wunderground v.1.15,2013-01-20 22:20:00,
2013-01-20 23:35:00,52.8,42.1,29.60,WSW,240,1.0,2.0,67,0.00,,,0.02,Wunderground v.1.15,2013-01-20 22:35:00,
2013-01-20 23:40:00,51.7,41.5,29.60,WSW,240,1.0,2.0,68,0.00,,,0.02,Wunderground v.1.15,2013-01-20 22:40:00,
2013-01-20 23:45:00,50.5,40.7,29.60,WSW,240,1.0,1.0,69,0.00,,,0.02,Wunderground v.1.15,2013-01-20 22:45:00,
2013-01-20 23:55:00,48.8,39.4,29.60,WSW,240,2.0,3.0,70,0.00,,,0.02,Wunderground v.1.15,2013-01-20 22:55:00,